Time,TemperatureF,DewpointF,PressureIn,WindDirection,WindDirectionDegrees,WindSpeedMPH,WindSpeedGustMPH,Humidity,HourlyPrecipIn,Conditions,Clouds,dailyrainin,SoftwareType,DateUTC
2013-02-02 00:01:00,5.3,2.5,30.06,NE,55,1.0,1.0,88,0.00,,---,0.00,VWS V14.00,2013-02-02 06:01:00,
2013-02-02 00:06:00,5.4,2.6,30.06,NE,55,0.0,0.0,88,0.00,,---,0.00,VWS V14.00,2013-02-02 06:06:00,
2013-02-02 00:11:00,5.5,2.7,30.06,NE,55,0.0,0.0,88,0.00,,---,0.00,VWS V14.00,2013-02-02 06:11:00,
2013-02-02 00:16:00,5.5,2.7,30.05,NE,55,1.0,2.0,88,0.00,,---,0.00,VWS V14.00,2013-02-02 06:16:00,
2013-02-02 00:21:00,5.6,2.8,30.05,NE,55,1.0,1.0,88,0.00,,---,0.00,VWS V14.00,2013-02-02 06:21:00,
2013-02-02 00:26:00,5.6,2.8,30.05,NE,55,0.0,2.0,88,0.00,,---,0.00,VWS V14.00,2013-02-02 06:26:00,
2013-02-02 00:31:00,5.7,3.2,30.05,NE,55,0.0,0.0,89,0.00,,---,0.00,VWS V14.00,2013-02-02 06:31:00,
2013-02-02 00:36:00,5.7,3.2,30.04,NE,55,0.0,0.0,89,0.00,,---,0.00,VWS V14.00,2013-02-02 06:36:00,
2013-02-02 00:41:00,5.8,3.3,30.04,NE,55,0.0,0.0,89,0.00,,---,0.00,VWS V14.00,2013-02-02 06:41:00,
2013-02-02 00:46:00,5.8,3.3,30.04,NE,55,0.0,1.0,89,0.00,,---,0.00,VWS V14.00,2013-02-02 06:46:00,
2013-02-02 00:51:00,5.8,3.0,30.03,NE,55,0.0,1.0,88,0.00,,---,0.00,VWS V14.00,2013-02-02 06:51:00,
2013-02-02 00:56:00,5.9,3.1,30.03,NE,55,0.0,0.0,88,0.00,,---,0.00,VWS V14.00,2013-02-02 06:56:00,
2013-02-02 01:01:00,5.9,3.4,30.03,NE,55,0.0,0.0,89,0.00,,---,0.00,VWS V14.00,2013-02-02 07:01:00,
2013-02-02 01:06:00,6.0,3.5,30.03,NE,55,0.0,0.0,89,0.00,,---,0.00,VWS V14.00,2013-02-02 07:06:00,
2013-02-02 01:11:00,6.0,3.5,30.03,NE,55,0.0,0.0,89,0.00,,---,0.00,VWS V14.00,2013-02-02 07:11:00,
2013-02-02 01:16:00,6.0,3.5,30.02,NE,55,0.0,0.0,89,0.00,,---,0.00,VWS V14.00,2013-02-02 07:16:00,
2013-02-02 01:21:00,6.0,3.5,30.02,NE,55,0.0,1.0,89,0.00,,---,0.00,VWS V14.00,2013-02-02 07:21:00,
2013-02-02 01:26:00,6.0,3.5,30.02,NE,55,0.0,0.0,89,0.00,,---,0.00,VWS V14.00,2013-02-02 07:26:00,
2013-02-02 01:31:00,6.0,3.5,30.02,NE,55,0.0,0.0,89,0.00,,---,0.00,VWS V14.00,2013-02-02 07:31:00,
2013-02-02 01:36:00,6.1,3.6,30.02,NE,55,0.0,1.0,89,0.00,,---,0.00,VWS V14.00,2013-02-02 07:36:00,
2013-02-02 01:41:00,6.2,3.7,30.02,NE,55,0.0,0.0,89,0.00,,---,0.00,VWS V14.00,2013-02-02 07:41:00,
2013-02-02 01:46:00,6.2,3.7,30.02,NE,55,0.0,0.0,89,0.00,,---,0.00,VWS V14.00,2013-02-02 07:46:00,
2013-02-02 01:51:00,6.2,3.7,30.02,NE,55,0.0,1.0,89,0.00,,---,0.00,VWS V14.00,2013-02-02 07:51:00,
2013-02-02 01:56:00,6.3,3.8,30.02,NE,55,0.0,1.0,89,0.00,,---,0.00,VWS V14.00,2013-02-02 07:56:00,
2013-02-02 02:01:00,6.4,3.9,30.02,NE,55,0.0,0.0,89,0.00,,---,0.00,VWS V14.00,2013-02-02 08:01:00,
2013-02-02 02:06:00,6.4,3.9,30.02,NE,55,0.0,0.0,89,0.00,,---,0.00,VWS V14.00,2013-02-02 08:06:00,
2013-02-02 02:11:00,6.4,3.9,30.02,NE,55,0.0,0.0,89,0.00,,---,0.00,VWS V14.00,2013-02-02 08:11:00,
2013-02-02 02:16:00,6.4,3.9,30.01,NE,55,0.0,0.0,89,0.00,,---,0.00,VWS V14.00,2013-02-02 08:16:00,
2013-02-02 02:21:00,6.5,4.0,30.02,NE,55,1.0,1.0,89,0.00,,---,0.00,VWS V14.00,2013-02-02 08:21:00,
2013-02-02 02:26:00,6.5,4.0,30.01,NE,55,0.0,0.0,89,0.00,,---,0.00,VWS V14.00,2013-02-02 08:26:00,
2013-02-02 02:31:00,6.6,4.1,30.02,NE,55,0.0,1.0,89,0.00,,---,0.00,VWS V14.00,2013-02-02 08:31:00,
2013-02-02 02:36:00,6.6,4.1,30.01,NE,55,0.0,0.0,89,0.00,,---,0.00,VWS V14.00,2013-02-02 08:36:00,
2013-02-02 02:41:00,6.7,4.2,30.01,NE,55,0.0,1.0,89,0.00,,---,0.00,VWS V14.00,2013-02-02 08:41:00,
2013-02-02 02:46:00,6.8,4.2,30.01,NE,55,0.0,0.0,89,0.00,,---,0.00,VWS V14.00,2013-02-02 08:46:00,
2013-02-02 02:51:00,6.8,4.2,30.00,NE,55,0.0,1.0,89,0.00,,---,0.00,VWS V14.00,2013-02-02 08:51:00,
2013-02-02 02:56:00,6.9,4.3,30.01,NE,55,0.0,0.0,89,0.00,,---,0.00,VWS V14.00,2013-02-02 08:56:00,
2013-02-02 03:01:00,6.9,4.3,30.00,NE,55,0.0,1.0,89,0.00,,---,0.00,VWS V14.00,2013-02-02 09:01:00,
2013-02-02 03:06:00,6.9,4.3,30.00,NE,55,0.0,0.0,89,0.00,,---,0.00,VWS V14.00,2013-02-02 09:06:00,
2013-02-02 03:11:00,7.0,4.4,30.00,NE,55,0.0,1.0,89,0.00,,---,0.00,VWS V14.00,2013-02-02 09:11:00,
2013-02-02 03:16:00,7.0,4.4,30.00,NE,55,0.0,1.0,89,0.00,,---,0.00,VWS V14.00,2013-02-02 09:16:00,
2013-02-02 03:21:00,7.0,4.4,30.00,NE,55,0.0,1.0,89,0.00,,---,0.00,VWS V14.00,2013-02-02 09:21:00,
2013-02-02 03:26:00,7.0,4.4,30.00,NE,55,0.0,0.0,89,0.00,,---,0.00,VWS V14.00,2013-02-02 09:26:00,
2013-02-02 03:31:00,7.1,4.6,30.00,NE,55,0.0,1.0,89,0.00,,---,0.00,VWS V14.00,2013-02-02 09:31:00,
2013-02-02 03:36:00,7.1,4.6,29.99,NE,55,0.0,1.0,89,0.00,,---,0.00,VWS V14.00,2013-02-02 09:36:00,
2013-02-02 03:41:00,7.1,4.6,29.99,NE,55,0.0,1.0,89,0.00,,---,0.00,VWS V14.00,2013-02-02 09:41:00,
2013-02-02 03:46:00,7.2,4.7,29.99,NE,55,0.0,0.0,89,0.00,,---,0.00,VWS V14.00,2013-02-02 09:46:00,
2013-02-02 03:51:00,7.2,4.7,29.99,NE,55,0.0,0.0,89,0.00,,---,0.00,VWS V14.00,2013-02-02 09:51:00,
2013-02-02 03:56:00,7.2,4.7,29.99,NE,55,0.0,1.0,89,0.00,,---,0.00,VWS V14.00,2013-02-02 09:56:00,
2013-02-02 04:01:00,7.2,4.7,29.99,NE,55,0.0,1.0,89,0.00,,---,0.00,VWS V14.00,2013-02-02 10:01:00,
2013-02-02 04:06:00,7.2,4.7,29.99,NE,55,1.0,1.0,89,0.00,,---,0.00,VWS V14.00,2013-02-02 10:06:00,
2013-02-02 04:11:00,7.2,4.7,29.99,NE,55,0.0,0.0,89,0.00,,---,0.00,VWS V14.00,2013-02-02 10:11:00,
2013-02-02 04:16:00,7.2,4.7,29.99,NE,55,0.0,2.0,89,0.00,,---,0.00,VWS V14.00,2013-02-02 10:16:00,
2013-02-02 04:21:00,7.2,4.7,29.99,NE,55,1.0,2.0,89,0.00,,---,0.00,VWS V14.00,2013-02-02 10:21:00,
2013-02-02 04:26:00,7.2,4.7,29.99,NE,55,1.0,1.0,89,0.00,,---,0.00,VWS V14.00,2013-02-02 10:26:00,
2013-02-02 04:31:00,7.1,4.6,29.99,NE,55,0.0,1.0,89,0.00,,---,0.00,VWS V14.00,2013-02-02 10:31:00,
2013-02-02 04:36:00,7.1,4.6,29.99,NE,55,1.0,1.0,89,0.00,,---,0.00,VWS V14.00,2013-02-02 10:36:00,
2013-02-02 04:41:00,6.9,4.3,29.99,NE,55,0.0,2.0,89,0.00,,---,0.00,VWS V14.00,2013-02-02 10:41:00,
2013-02-02 04:46:00,6.9,4.3,29.99,NE,55,0.0,1.0,89,0.00,,---,0.00,VWS V14.00,2013-02-02 10:46:00,
2013-02-02 04:51:00,6.9,4.6,29.99,NE,55,0.0,0.0,90,0.00,,---,0.00,VWS V14.00,2013-02-02 10:51:00,
2013-02-02 04:56:00,7.0,4.7,29.99,NE,55,1.0,2.0,90,0.00,,---,0.00,VWS V14.00,2013-02-02 10:56:00,
2013-02-02 05:01:00,6.9,4.6,29.99,NE,55,0.0,0.0,90,0.00,,---,0.00,VWS V14.00,2013-02-02 11:01:00,
2013-02-02 05:06:00,6.9,4.6,29.99,NE,55,1.0,1.0,90,0.00,,---,0.00,VWS V14.00,2013-02-02 11:06:00,
2013-02-02 05:11:00,6.9,4.3,29.99,NE,55,0.0,1.0,89,0.00,,---,0.00,VWS V14.00,2013-02-02 11:11:00,
2013-02-02 05:16:00,6.8,4.2,29.99,NE,55,0.0,1.0,89,0.00,,---,0.00,VWS V14.00,2013-02-02 11:16:00,
2013-02-02 05:21:00,6.8,4.2,29.99,NE,55,0.0,0.0,89,0.00,,---,0.00,VWS V14.00,2013-02-02 11:21:00,
2013-02-02 05:26:00,6.8,4.2,29.99,NE,55,1.0,3.0,89,0.00,,---,0.00,VWS V14.00,2013-02-02 11:26:00,
2013-02-02 05:31:00,6.7,4.2,29.99,NE,55,0.0,2.0,89,0.00,,---,0.00,VWS V14.00,2013-02-02 11:31:00,
2013-02-02 05:36:00,6.7,4.2,29.99,NE,55,0.0,0.0,89,0.00,,---,0.00,VWS V14.00,2013-02-02 11:36:00,
2013-02-02 05:41:00,6.7,4.2,29.99,NE,55,0.0,2.0,89,0.00,,---,0.00,VWS V14.00,2013-02-02 11:41:00,
2013-02-02 05:46:00,6.6,4.1,30.00,NE,55,0.0,2.0,89,0.00,,---,0.00,VWS V14.00,2013-02-02 11:46:00,
2013-02-02 05:52:00,6.6,4.1,30.00,NE,55,0.0,3.0,89,0.00,,---,0.00,VWS V14.00,2013-02-02 11:52:00,
2013-02-02 05:57:00,6.6,4.1,30.00,NE,55,0.0,1.0,89,0.00,,---,0.00,VWS V14.00,2013-02-02 11:57:00,
2013-02-02 06:02:00,6.6,4.1,30.00,NE,55,0.0,0.0,89,0.00,,---,0.00,VWS V14.00,2013-02-02 12:02:00,
2013-02-02 06:07:00,6.5,4.0,30.00,NE,55,0.0,0.0,89,0.00,,---,0.00,VWS V14.00,2013-02-02 12:07:00,
2013-02-02 06:12:00,6.4,3.9,30.00,NE,55,0.0,0.0,89,0.00,,---,0.00,VWS V14.00,2013-02-02 12:12:00,
2013-02-02 06:17:00,6.4,3.9,30.01,NE,55,0.0,0.0,89,0.00,,---,0.00,VWS V14.00,2013-02-02 12:17:00,
2013-02-02 06:22:00,6.3,3.8,30.01,NE,55,0.0,0.0,89,0.00,,---,0.00,VWS V14.00,2013-02-02 12:22:00,
2013-02-02 06:27:00,6.3,3.8,30.01,NE,55,0.0,0.0,89,0.00,,---,0.00,VWS V14.00,2013-02-02 12:27:00,
2013-02-02 06:32:00,6.2,3.7,30.01,NE,55,0.0,0.0,89,0.00,,---,0.00,VWS V14.00,2013-02-02 12:32:00,
2013-02-02 06:37:00,6.2,3.7,30.02,NE,55,0.0,0.0,89,0.00,,---,0.00,VWS V14.00,2013-02-02 12:37:00,
2013-02-02 06:42:00,6.2,3.7,30.02,NE,55,0.0,0.0,89,0.00,,---,0.00,VWS V14.00,2013-02-02 12:42:00,
2013-02-02 06:47:00,6.2,3.7,30.02,NE,55,0.0,0.0,89,0.00,,---,0.00,VWS V14.00,2013-02-02 12:47:00,
2013-02-02 06:52:00,6.2,3.7,30.02,NE,55,0.0,0.0,89,0.00,,---,0.00,VWS V14.00,2013-02-02 12:52:00,
2013-02-02 06:57:00,6.2,3.7,30.03,NE,55,2.0,2.0,89,0.00,,---,0.00,VWS V14.00,2013-02-02 12:57:00,
2013-02-02 07:02:00,6.1,3.3,30.03,NE,55,2.0,3.0,88,0.00,,---,0.00,VWS V14.00,2013-02-02 13:02:00,
2013-02-02 07:07:00,6.1,3.3,30.03,NE,55,0.0,1.0,88,0.00,,---,0.00,VWS V14.00,2013-02-02 13:07:00,
2013-02-02 07:12:00,6.0,3.2,30.03,NE,55,1.0,4.0,88,0.00,,---,0.00,VWS V14.00,2013-02-02 13:12:00,
2013-02-02 07:17:00,6.0,3.2,30.03,NE,55,4.0,5.0,88,0.00,,---,0.00,VWS V14.00,2013-02-02 13:17:00,
2013-02-02 07:22:00,6.0,3.2,30.03,NE,55,2.0,2.0,88,0.00,,---,0.00,VWS V14.00,2013-02-02 13:22:00,
2013-02-02 07:27:00,6.1,3.3,30.04,NE,55,0.0,3.0,88,0.00,,---,0.00,VWS V14.00,2013-02-02 13:27:00,
2013-02-02 07:32:00,6.1,3.3,30.04,NE,55,0.0,0.0,88,0.00,,---,0.00,VWS V14.00,2013-02-02 13:32:00,
2013-02-02 07:37:00,6.0,3.2,30.04,NE,55,1.0,5.0,88,0.00,,---,0.00,VWS V14.00,2013-02-02 13:37:00,
2013-02-02 07:42:00,6.0,3.0,30.05,NE,55,0.0,5.0,87,0.00,,---,0.00,VWS V14.00,2013-02-02 13:42:00,
2013-02-02 07:47:00,6.0,3.0,30.05,NE,55,2.0,4.0,87,0.00,,---,0.00,VWS V14.00,2013-02-02 13:47:00,
2013-02-02 07:52:00,5.9,2.9,30.05,NE,55,4.0,10.0,87,0.00,,---,0.00,VWS V14.00,2013-02-02 13:52:00,
2013-02-02 07:57:00,5.9,2.9,30.05,NE,55,0.0,3.0,87,0.00,,---,0.00,VWS V14.00,2013-02-02 13:57:00,
2013-02-02 08:02:00,5.9,2.9,30.05,NE,55,0.0,4.0,87,0.00,,---,0.00,VWS V14.00,2013-02-02 14:02:00,
2013-02-02 08:07:00,5.9,2.9,30.05,NE,55,2.0,4.0,87,0.00,,---,0.00,VWS V14.00,2013-02-02 14:07:00,
2013-02-02 08:12:00,5.9,2.6,30.05,NE,55,3.0,6.0,86,0.00,,---,0.00,VWS V14.00,2013-02-02 14:12:00,
2013-02-02 08:17:00,6.0,2.7,30.05,NE,55,2.0,5.0,86,0.00,,---,0.00,VWS V14.00,2013-02-02 14:17:00,
2013-02-02 08:22:00,6.0,2.7,30.06,NE,55,0.0,3.0,86,0.00,,---,0.00,VWS V14.00,2013-02-02 14:22:00,
2013-02-02 08:27:00,6.1,2.8,30.06,NE,55,3.0,5.0,86,0.00,,---,0.00,VWS V14.00,2013-02-02 14:27:00,
2013-02-02 08:32:00,6.2,2.9,30.06,NE,55,3.0,10.0,86,0.00,,---,0.00,VWS V14.00,2013-02-02 14:32:00,
2013-02-02 08:37:00,6.2,2.7,30.06,NE,55,4.0,5.0,85,0.00,,---,0.00,VWS V14.00,2013-02-02 14:37:00,
2013-02-02 08:43:00,6.2,2.7,30.06,NE,55,2.0,6.0,85,0.00,,---,0.00,VWS V14.00,2013-02-02 14:43:00,
2013-02-02 08:48:00,6.2,2.7,30.06,NE,55,4.0,6.0,85,0.00,,---,0.00,VWS V14.00,2013-02-02 14:48:00,
2013-02-02 08:53:00,6.2,2.4,30.06,NE,55,4.0,4.0,84,0.00,,---,0.00,VWS V14.00,2013-02-02 14:53:00,
2013-02-02 08:58:00,6.2,2.4,30.06,NE,55,1.0,9.0,84,0.00,,---,0.00,VWS V14.00,2013-02-02 14:58:00,
2013-02-02 09:03:00,6.2,2.2,30.06,NE,55,0.0,2.0,83,0.00,,---,0.00,VWS V14.00,2013-02-02 15:03:00,
2013-02-02 09:08:00,6.4,2.3,30.06,NE,55,0.0,0.0,83,0.00,,---,0.00,VWS V14.00,2013-02-02 15:08:00,
2013-02-02 09:13:00,6.6,2.5,30.06,NE,55,3.0,4.0,83,0.00,,---,0.00,VWS V14.00,2013-02-02 15:13:00,
2013-02-02 09:18:00,6.7,2.6,30.06,NE,55,0.0,6.0,83,0.00,,---,0.00,VWS V14.00,2013-02-02 15:18:00,
2013-02-02 09:23:00,6.8,2.7,30.06,NE,55,2.0,4.0,83,0.00,,---,0.00,VWS V14.00,2013-02-02 15:23:00,
2013-02-02 09:28:00,7.1,3.0,30.06,NE,55,2.0,6.0,83,0.00,,---,0.00,VWS V14.00,2013-02-02 15:28:00,
2013-02-02 09:33:00,7.0,2.4,30.06,NE,55,0.0,3.0,81,0.00,,---,0.00,VWS V14.00,2013-02-02 15:33:00,
2013-02-02 09:38:00,7.0,2.4,30.06,NE,55,1.0,5.0,81,0.00,,---,0.00,VWS V14.00,2013-02-02 15:38:00,
2013-02-02 09:43:00,7.0,2.4,30.06,NE,55,1.0,3.0,81,0.00,,---,0.00,VWS V14.00,2013-02-02 15:43:00,
2013-02-02 09:48:00,7.1,2.5,30.06,NE,55,0.0,9.0,81,0.00,,---,0.00,VWS V14.00,2013-02-02 15:48:00,
2013-02-02 09:53:00,7.0,2.4,30.06,NE,55,2.0,5.0,81,0.00,,---,0.00,VWS V14.00,2013-02-02 15:53:00,
2013-02-02 09:58:00,7.1,2.5,30.06,NE,55,3.0,6.0,81,0.00,,---,0.00,VWS V14.00,2013-02-02 15:58:00,
2013-02-02 10:03:00,7.3,2.4,30.06,NE,55,4.0,6.0,80,0.00,,---,0.00,VWS V14.00,2013-02-02 16:03:00,
2013-02-02 10:08:00,7.3,2.4,30.06,NE,55,3.0,10.0,80,0.00,,---,0.00,VWS V14.00,2013-02-02 16:08:00,
2013-02-02 10:13:00,7.4,2.3,30.07,NE,55,0.0,10.0,79,0.00,,---,0.00,VWS V14.00,2013-02-02 16:13:00,
2013-02-02 10:18:00,7.6,2.5,30.07,NE,55,5.0,10.0,79,0.00,,---,0.00,VWS V14.00,2013-02-02 16:18:00,
2013-02-02 10:23:00,7.6,2.5,30.07,NE,55,3.0,6.0,79,0.00,,---,0.00,VWS V14.00,2013-02-02 16:23:00,
2013-02-02 10:28:00,7.5,2.4,30.07,NE,55,3.0,6.0,79,0.00,,---,0.00,VWS V14.00,2013-02-02 16:28:00,
2013-02-02 10:33:00,7.7,2.6,30.07,NE,55,2.0,5.0,79,0.00,,---,0.00,VWS V14.00,2013-02-02 16:33:00,
2013-02-02 10:38:00,8.0,2.8,30.07,NE,55,4.0,6.0,79,0.00,,---,0.00,VWS V14.00,2013-02-02 16:38:00,
2013-02-02 10:43:00,8.2,2.8,30.07,NE,55,5.0,7.0,78,0.00,,---,0.00,VWS V14.00,2013-02-02 16:43:00,
2013-02-02 10:48:00,8.1,2.4,30.07,NE,55,4.0,7.0,77,0.00,,---,0.00,VWS V14.00,2013-02-02 16:48:00,
2013-02-02 10:53:00,8.4,3.0,30.07,NE,55,0.0,6.0,78,0.00,,---,0.00,VWS V14.00,2013-02-02 16:53:00,
2013-02-02 10:58:00,8.6,3.2,30.06,NE,51,2.0,7.0,78,0.00,,---,0.00,VWS V14.00,2013-02-02 16:58:00,
2013-02-02 11:03:00,9.0,3.3,30.06,NE,51,2.0,7.0,77,0.00,,---,0.00,VWS V14.00,2013-02-02 17:03:00,
2013-02-02 11:08:00,9.2,3.5,30.06,NE,51,6.0,7.0,77,0.00,,---,0.00,VWS V14.00,2013-02-02 17:08:00,
2013-02-02 11:13:00,9.3,3.3,30.06,NE,51,6.0,10.0,76,0.00,,---,0.00,VWS V14.00,2013-02-02 17:13:00,
2013-02-02 11:18:00,9.3,3.3,30.06,NE,51,4.0,6.0,76,0.00,,---,0.00,VWS V14.00,2013-02-02 17:18:00,
2013-02-02 11:23:00,9.3,3.3,30.06,NE,51,5.0,6.0,76,0.00,,---,0.00,VWS V14.00,2013-02-02 17:23:00,
2013-02-02 11:28:00,9.4,3.4,30.06,NE,51,3.0,8.0,76,0.00,,---,0.00,VWS V14.00,2013-02-02 17:28:00,
2013-02-02 11:33:00,9.6,3.6,30.06,NE,50,7.0,9.0,76,0.00,,---,0.00,VWS V14.00,2013-02-02 17:33:00,
2013-02-02 11:38:00,9.9,3.9,30.06,NE,49,3.0,5.0,76,0.00,,---,0.00,VWS V14.00,2013-02-02 17:38:00,
2013-02-02 11:43:00,9.8,3.5,30.06,NE,49,4.0,9.0,75,0.00,,---,0.00,VWS V14.00,2013-02-02 17:43:00,
2013-02-02 11:48:00,9.8,3.5,30.05,NE,50,5.0,7.0,75,0.00,,---,0.00,VWS V14.00,2013-02-02 17:48:00,
2013-02-02 11:53:00,10.3,4.0,30.05,NE,49,2.0,7.0,75,0.00,,---,0.00,VWS V14.00,2013-02-02 17:53:00,
2013-02-02 11:58:00,10.3,4.0,30.05,NE,46,6.0,10.0,75,0.00,,---,0.00,VWS V14.00,2013-02-02 17:58:00,
2013-02-02 12:03:00,10.3,3.7,30.04,NE,46,3.0,7.0,74,0.00,,---,0.00,VWS V14.00,2013-02-02 18:03:00,
2013-02-02 12:08:00,10.2,3.6,30.04,NE,46,2.0,5.0,74,0.00,,---,0.00,VWS V14.00,2013-02-02 18:08:00,
2013-02-02 12:13:00,10.1,3.8,30.04,NE,45,5.0,10.0,75,0.00,,---,0.00,VWS V14.00,2013-02-02 18:13:00,
2013-02-02 12:18:00,10.2,3.6,30.04,NE,45,2.0,11.0,74,0.00,,---,0.00,VWS V14.00,2013-02-02 18:18:00,
2013-02-02 12:23:00,10.2,3.9,30.04,NE,46,9.0,9.0,75,0.00,,---,0.00,VWS V14.00,2013-02-02 18:23:00,
2013-02-02 12:28:00,10.3,4.0,30.04,NE,46,3.0,5.0,75,0.00,,---,0.00,VWS V14.00,2013-02-02 18:28:00,
2013-02-02 12:33:00,10.6,4.0,30.05,NE,46,2.0,5.0,74,0.00,,---,0.00,VWS V14.00,2013-02-02 18:33:00,
2013-02-02 12:38:00,10.8,3.9,30.05,NE,46,4.0,7.0,73,0.00,,---,0.00,VWS V14.00,2013-02-02 18:38:00,
2013-02-02 12:43:00,10.8,3.9,30.05,NE,46,0.0,4.0,73,0.00,,---,0.00,VWS V14.00,2013-02-02 18:43:00,
2013-02-02 12:48:00,11.0,4.1,30.05,NE,46,3.0,6.0,73,0.00,,---,0.00,VWS V14.00,2013-02-02 18:48:00,
2013-02-02 12:53:00,11.3,4.3,30.05,NE,45,4.0,5.0,73,0.00,,---,0.00,VWS V14.00,2013-02-02 18:53:00,
2013-02-02 12:58:00,11.1,4.2,30.05,NE,45,0.0,7.0,73,0.00,,---,0.00,VWS V14.00,2013-02-02 18:58:00,
2013-02-02 13:03:00,11.1,4.2,30.05,NE,46,2.0,9.0,73,0.00,,---,0.00,VWS V14.00,2013-02-02 19:03:00,
2013-02-02 13:08:00,11.4,4.4,30.05,NE,46,2.0,4.0,73,0.00,,---,0.00,VWS V14.00,2013-02-02 19:08:00,
2013-02-02 13:13:00,12.0,5.0,30.04,NE,46,2.0,2.0,73,0.00,,---,0.00,VWS V14.00,2013-02-02 19:13:00,
2013-02-02 13:18:00,12.3,5.0,30.04,NE,46,4.0,4.0,72,0.00,,---,0.00,VWS V14.00,2013-02-02 19:18:00,
2013-02-02 13:23:00,12.3,4.7,30.04,NE,46,2.0,4.0,71,0.00,,---,0.00,VWS V14.00,2013-02-02 19:23:00,
2013-02-02 13:28:00,11.8,4.2,30.05,NE,46,5.0,8.0,71,0.00,,---,0.00,VWS V14.00,2013-02-02 19:28:00,
2013-02-02 13:33:00,11.4,3.8,30.04,NE,45,1.0,7.0,71,0.00,,---,0.00,VWS V14.00,2013-02-02 19:33:00,
2013-02-02 13:39:00,11.1,3.8,30.05,NE,45,1.0,11.0,72,0.00,,---,0.00,VWS V14.00,2013-02-02 19:39:00,
2013-02-02 13:44:00,11.7,4.7,30.04,NE,45,1.0,8.0,73,0.00,,---,0.00,VWS V14.00,2013-02-02 19:44:00,
2013-02-02 13:49:00,11.4,3.8,30.04,NE,45,0.0,10.0,71,0.00,,---,0.00,VWS V14.00,2013-02-02 19:49:00,
2013-02-02 13:54:00,11.1,3.8,30.05,NE,45,3.0,6.0,72,0.00,,---,0.00,VWS V14.00,2013-02-02 19:54:00,
2013-02-02 13:59:00,11.2,4.2,30.05,NE,45,2.0,5.0,73,0.00,,---,0.00,VWS V14.00,2013-02-02 19:59:00,
2013-02-02 14:04:00,11.5,4.2,30.04,NE,45,5.0,7.0,72,0.00,,---,0.00,VWS V14.00,2013-02-02 20:04:00,
2013-02-02 14:09:00,11.5,4.2,30.04,NE,45,0.0,9.0,72,0.00,,---,0.00,VWS V14.00,2013-02-02 20:09:00,
2013-02-02 14:14:00,11.6,4.6,30.04,NE,45,2.0,4.0,73,0.00,,---,0.00,VWS V14.00,2013-02-02 20:14:00,
2013-02-02 14:19:00,11.7,4.4,30.04,NE,45,0.0,9.0,72,0.00,,---,0.00,VWS V14.00,2013-02-02 20:19:00,
2013-02-02 14:24:00,11.8,4.5,30.04,NE,45,2.0,6.0,72,0.00,,---,0.00,VWS V14.00,2013-02-02 20:24:00,
2013-02-02 14:29:00,12.2,4.9,30.04,NE,45,2.0,4.0,72,0.00,,---,0.00,VWS V14.00,2013-02-02 20:29:00,
2013-02-02 14:34:00,12.2,4.6,30.04,NE,45,3.0,4.0,71,0.00,,---,0.00,VWS V14.00,2013-02-02 20:34:00,
2013-02-02 14:39:00,12.1,4.5,30.04,NE,45,2.0,4.0,71,0.00,,---,0.00,VWS V14.00,2013-02-02 20:39:00,
2013-02-02 14:44:00,11.9,4.3,30.04,NE,45,0.0,3.0,71,0.00,,---,0.00,VWS V14.00,2013-02-02 20:44:00,
2013-02-02 14:49:00,11.9,4.3,30.04,NE,45,0.0,3.0,71,0.00,,---,0.00,VWS V14.00,2013-02-02 20:49:00,
2013-02-02 14:54:00,11.8,4.2,30.05,NE,45,1.0,5.0,71,0.00,,---,0.00,VWS V14.00,2013-02-02 20:54:00,
2013-02-02 14:59:00,11.7,4.4,30.05,NE,45,2.0,4.0,72,0.00,,---,0.00,VWS V14.00,2013-02-02 20:59:00,
2013-02-02 15:04:00,11.9,4.6,30.04,NE,45,0.0,5.0,72,0.00,,---,0.00,VWS V14.00,2013-02-02 21:04:00,
2013-02-02 15:09:00,11.8,4.5,30.04,NE,45,0.0,4.0,72,0.00,,---,0.00,VWS V14.00,2013-02-02 21:09:00,
2013-02-02 15:14:00,12.1,4.8,30.04,NE,45,0.0,3.0,72,0.00,,---,0.00,VWS V14.00,2013-02-02 21:14:00,
2013-02-02 15:19:00,12.2,4.9,30.04,NE,45,0.0,1.0,72,0.00,,---,0.00,VWS V14.00,2013-02-02 21:19:00,
2013-02-02 15:24:00,12.4,4.8,30.04,NE,45,0.0,2.0,71,0.00,,---,0.00,VWS V14.00,2013-02-02 21:24:00,
2013-02-02 15:29:00,12.4,4.8,30.04,NE,45,0.0,2.0,71,0.00,,---,0.00,VWS V14.00,2013-02-02 21:29:00,
2013-02-02 15:34:00,12.1,4.5,30.04,NE,45,1.0,2.0,71,0.00,,---,0.00,VWS V14.00,2013-02-02 21:34:00,
2013-02-02 15:39:00,11.9,4.3,30.04,NE,45,0.0,0.0,71,0.00,,---,0.00,VWS V14.00,2013-02-02 21:39:00,
2013-02-02 15:44:00,11.8,4.2,30.04,NE,45,0.0,2.0,71,0.00,,---,0.00,VWS V14.00,2013-02-02 21:44:00,
2013-02-02 15:49:00,11.6,4.0,30.04,NE,45,0.0,3.0,71,0.00,,---,0.00,VWS V14.00,2013-02-02 21:49:00,
2013-02-02 15:54:00,11.5,4.2,30.04,NE,45,0.0,0.0,72,0.00,,---,0.00,VWS V14.00,2013-02-02 21:54:00,
2013-02-02 15:59:00,11.5,4.2,30.05,NE,45,0.0,2.0,72,0.00,,---,0.00,VWS V14.00,2013-02-02 21:59:00,
2013-02-02 16:04:00,11.3,3.7,30.04,NE,45,0.0,1.0,71,0.00,,---,0.00,VWS V14.00,2013-02-02 22:04:00,
2013-02-02 16:09:00,11.1,3.5,30.04,NE,45,3.0,3.0,71,0.00,,---,0.00,VWS V14.00,2013-02-02 22:09:00,
2013-02-02 16:14:00,10.7,3.2,30.04,NE,45,1.0,1.0,71,0.00,,---,0.00,VWS V14.00,2013-02-02 22:14:00,
2013-02-02 16:19:00,10.5,3.0,30.04,NE,45,1.0,2.0,71,0.00,,---,0.00,VWS V14.00,2013-02-02 22:19:00,
2013-02-02 16:24:00,10.2,2.7,30.04,NE,45,2.0,3.0,71,0.00,,---,0.00,VWS V14.00,2013-02-02 22:24:00,
2013-02-02 16:29:00,9.9,2.7,30.05,NE,45,0.0,2.0,72,0.00,,---,0.00,VWS V14.00,2013-02-02 22:29:00,
2013-02-02 16:34:00,9.5,2.3,30.05,NE,45,0.0,1.0,72,0.00,,---,0.00,VWS V14.00,2013-02-02 22:34:00,
2013-02-02 16:39:00,9.3,2.4,30.05,NE,45,1.0,1.0,73,0.00,,---,0.00,VWS V14.00,2013-02-02 22:39:00,
2013-02-02 16:44:00,9.2,2.3,30.05,NE,45,0.0,1.0,73,0.00,,---,0.00,VWS V14.00,2013-02-02 22:44:00,
2013-02-02 16:49:00,9.1,2.5,30.05,NE,45,0.0,0.0,74,0.00,,---,0.00,VWS V14.00,2013-02-02 22:49:00,
2013-02-02 16:54:00,9.0,2.4,30.05,NE,45,0.0,0.0,74,0.00,,---,0.00,VWS V14.00,2013-02-02 22:54:00,
2013-02-02 16:59:00,8.8,2.2,30.05,NE,45,0.0,0.0,74,0.00,,---,0.00,VWS V14.00,2013-02-02 22:59:00,
2013-02-02 17:04:00,8.6,2.0,30.05,NE,45,0.0,0.0,74,0.00,,---,0.00,VWS V14.00,2013-02-02 23:04:00,
2013-02-02 17:09:00,8.4,2.1,30.05,NE,45,0.0,0.0,75,0.00,,---,0.00,VWS V14.00,2013-02-02 23:09:00,
2013-02-02 17:14:00,8.2,1.9,30.05,NE,45,0.0,0.0,75,0.00,,---,0.00,VWS V14.00,2013-02-02 23:14:00,
2013-02-02 17:19:00,8.1,1.8,30.05,NE,45,0.0,0.0,75,0.00,,---,0.00,VWS V14.00,2013-02-02 23:19:00,
2013-02-02 17:24:00,8.0,2.0,30.05,NE,45,0.0,0.0,76,0.00,,---,0.00,VWS V14.00,2013-02-02 23:24:00,
2013-02-02 17:29:00,7.8,1.8,30.05,NE,45,0.0,0.0,76,0.00,,---,0.00,VWS V14.00,2013-02-02 23:29:00,
2013-02-02 17:34:00,7.6,1.9,30.05,NE,45,0.0,0.0,77,0.00,,---,0.00,VWS V14.00,2013-02-02 23:34:00,
2013-02-02 17:39:00,7.4,1.7,30.05,NE,45,0.0,0.0,77,0.00,,---,0.00,VWS V14.00,2013-02-02 23:39:00,
2013-02-02 17:44:00,7.1,1.4,30.05,NE,45,0.0,0.0,77,0.00,,---,0.00,VWS V14.00,2013-02-02 23:44:00,
2013-02-02 17:49:00,7.0,1.3,30.05,NE,45,0.0,0.0,77,0.00,,---,0.00,VWS V14.00,2013-02-02 23:49:00,
2013-02-02 17:54:00,6.1,0.2,30.05,NE,45,0.0,0.0,76,0.00,,---,0.00,VWS V14.00,2013-02-02 23:54:00,
2013-02-02 17:59:00,5.8,0.4,30.05,NE,45,0.0,0.0,78,0.00,,---,0.00,VWS V14.00,2013-02-02 23:59:00,
2013-02-02 18:04:00,5.5,0.4,30.05,NE,45,0.0,0.0,79,0.00,,---,0.00,VWS V14.00,2013-02-03 00:04:00,
2013-02-02 18:09:00,5.1,0.3,30.05,NE,45,0.0,0.0,80,0.00,,---,0.00,VWS V14.00,2013-02-03 00:09:00,
2013-02-02 18:14:00,5.1,0.6,30.05,NE,45,0.0,0.0,81,0.00,,---,0.00,VWS V14.00,2013-02-03 00:14:00,
2013-02-02 18:19:00,5.1,0.8,30.05,NE,45,0.0,0.0,82,0.00,,---,0.00,VWS V14.00,2013-02-03 00:19:00,
2013-02-02 18:24:00,5.2,1.2,30.05,NE,45,0.0,0.0,83,0.00,,---,0.00,VWS V14.00,2013-02-03 00:24:00,
2013-02-02 18:29:00,5.4,1.6,30.05,NE,45,0.0,0.0,84,0.00,,---,0.00,VWS V14.00,2013-02-03 00:29:00,
2013-02-02 18:34:00,5.7,1.9,30.05,NE,45,0.0,0.0,84,0.00,,---,0.00,VWS V14.00,2013-02-03 00:34:00,
2013-02-02 18:39:00,5.8,2.0,30.05,NE,45,0.0,0.0,84,0.00,,---,0.00,VWS V14.00,2013-02-03 00:39:00,
2013-02-02 18:44:00,5.8,2.0,30.05,NE,45,0.0,0.0,84,0.00,,---,0.00,VWS V14.00,2013-02-03 00:44:00,
2013-02-02 18:49:00,5.9,2.1,30.05,NE,45,0.0,0.0,84,0.00,,---,0.00,VWS V14.00,2013-02-03 00:49:00,
2013-02-02 18:54:00,6.1,2.6,30.04,NE,45,0.0,0.0,85,0.00,,---,0.00,VWS V14.00,2013-02-03 00:54:00,
2013-02-02 19:00:00,6.3,2.8,30.04,NE,45,0.0,0.0,85,0.00,,---,0.00,VWS V14.00,2013-02-03 01:00:00,
2013-02-02 19:05:00,6.3,2.8,30.04,NE,45,0.0,0.0,85,0.00,,---,0.00,VWS V14.00,2013-02-03 01:05:00,
2013-02-02 19:10:00,6.3,2.8,30.05,NE,45,0.0,0.0,85,0.00,,---,0.00,VWS V14.00,2013-02-03 01:10:00,
2013-02-02 19:15:00,6.4,2.9,30.04,NE,45,0.0,0.0,85,0.00,,---,0.00,VWS V14.00,2013-02-03 01:15:00,
2013-02-02 19:20:00,6.3,2.8,30.04,NE,45,0.0,0.0,85,0.00,,---,0.00,VWS V14.00,2013-02-03 01:20:00,
2013-02-02 19:25:00,6.1,2.6,30.04,NE,45,0.0,0.0,85,0.00,,---,0.00,VWS V14.00,2013-02-03 01:25:00,
2013-02-02 19:30:00,5.9,2.4,30.04,NE,45,0.0,0.0,85,0.00,,---,0.00,VWS V14.00,2013-02-03 01:30:00,
2013-02-02 19:35:00,5.6,2.1,30.04,NE,45,0.0,0.0,85,0.00,,---,0.00,VWS V14.00,2013-02-03 01:35:00,
2013-02-02 19:40:00,5.4,1.9,30.04,NE,45,0.0,0.0,85,0.00,,---,0.00,VWS V14.00,2013-02-03 01:40:00,
2013-02-02 19:45:00,5.2,1.7,30.04,NE,45,0.0,0.0,85,0.00,,---,0.00,VWS V14.00,2013-02-03 01:45:00,
2013-02-02 19:50:00,5.1,1.6,30.04,NE,45,0.0,1.0,85,0.00,,---,0.00,VWS V14.00,2013-02-03 01:50:00,
2013-02-02 19:55:00,5.1,1.6,30.04,NE,45,0.0,0.0,85,0.00,,---,0.00,VWS V14.00,2013-02-03 01:55:00,
2013-02-02 20:00:00,5.1,1.6,30.04,NE,45,0.0,0.0,85,0.00,,---,0.00,VWS V14.00,2013-02-03 02:00:00,
2013-02-02 20:05:00,4.9,1.1,30.04,NE,45,0.0,0.0,84,0.00,,---,0.00,VWS V14.00,2013-02-03 02:05:00,
2013-02-02 20:10:00,4.6,1.1,30.03,NE,45,0.0,0.0,85,0.00,,---,0.00,VWS V14.00,2013-02-03 02:10:00,
2013-02-02 20:15:00,4.2,0.7,30.03,NE,45,0.0,0.0,85,0.00,,---,0.00,VWS V14.00,2013-02-03 02:15:00,
2013-02-02 20:20:00,3.6,-0.1,30.02,NE,45,0.0,0.0,84,0.00,,---,0.00,VWS V14.00,2013-02-03 02:20:00,
2013-02-02 20:25:00,3.0,-0.7,30.02,NE,45,0.0,0.0,84,0.00,,---,0.00,VWS V14.00,2013-02-03 02:25:00,
2013-02-02 20:30:00,2.7,-0.8,30.02,NE,45,0.0,0.0,85,0.00,,---,0.00,VWS V14.00,2013-02-03 02:30:00,
2013-02-02 20:35:00,2.6,-0.6,30.02,NE,45,0.0,0.0,86,0.00,,---,0.00,VWS V14.00,2013-02-03 02:35:00,
2013-02-02 20:40:00,2.5,-0.7,30.01,NE,45,0.0,0.0,86,0.00,,---,0.00,VWS V14.00,2013-02-03 02:40:00,
2013-02-02 20:45:00,2.1,-1.1,30.01,NE,45,0.0,0.0,86,0.00,,---,0.00,VWS V14.00,2013-02-03 02:45:00,
2013-02-02 20:50:00,1.6,-1.6,30.01,NE,45,0.0,0.0,86,0.00,,---,0.00,VWS V14.00,2013-02-03 02:50:00,
2013-02-02 20:55:00,1.6,-1.4,30.01,NE,45,0.0,0.0,87,0.00,,---,0.00,VWS V14.00,2013-02-03 02:55:00,
2013-02-02 21:00:00,1.5,-1.5,30.01,NE,45,0.0,0.0,87,0.00,,---,0.00,VWS V14.00,2013-02-03 03:00:00,
2013-02-02 21:05:00,1.3,-1.7,30.00,NE,45,0.0,0.0,87,0.00,,---,0.00,VWS V14.00,2013-02-03 03:05:00,
2013-02-02 21:10:00,1.3,-1.7,30.00,NE,45,0.0,0.0,87,0.00,,---,0.00,VWS V14.00,2013-02-03 03:10:00,
2013-02-02 21:15:00,1.2,-1.8,30.00,NE,45,0.0,0.0,87,0.00,,---,0.00,VWS V14.00,2013-02-03 03:15:00,
2013-02-02 21:20:00,1.0,-2.0,30.00,NE,45,0.0,0.0,87,0.00,,---,0.00,VWS V14.00,2013-02-03 03:20:00,
2013-02-02 21:25:00,0.6,-2.3,30.01,NE,45,0.0,0.0,87,0.00,,---,0.00,VWS V14.00,2013-02-03 03:25:00,
2013-02-02 21:30:00,0.3,-2.7,30.01,NE,45,0.0,0.0,87,0.00,,---,0.00,VWS V14.00,2013-02-03 03:30:00,
2013-02-02 21:35:00,0.1,-2.8,30.01,NE,45,0.0,0.0,87,0.00,,---,0.00,VWS V14.00,2013-02-03 03:35:00,
2013-02-02 21:40:00,0.1,-2.9,30.01,NE,45,0.0,0.0,87,0.00,,---,0.00,VWS V14.00,2013-02-03 03:40:00,
2013-02-02 21:45:00,-0.2,-2.9,30.01,NE,45,0.0,0.0,88,0.00,,---,0.00,VWS V14.00,2013-02-03 03:45:00,
2013-02-02 21:50:00,-0.3,-3.0,30.01,NE,45,0.0,0.0,88,0.00,,---,0.00,VWS V14.00,2013-02-03 03:50:00,
2013-02-02 21:55:00,-0.3,-3.0,30.01,NE,45,0.0,0.0,88,0.00,,---,0.00,VWS V14.00,2013-02-03 03:55:00,
2013-02-02 22:00:00,-0.1,-2.7,30.01,NE,45,0.0,0.0,88,0.00,,---,0.00,VWS V14.00,2013-02-03 04:00:00,
2013-02-02 22:05:00,0.8,-1.7,30.00,NE,45,0.0,0.0,89,0.00,,---,0.00,VWS V14.00,2013-02-03 04:05:00,
2013-02-02 22:10:00,1.1,-1.4,30.00,NE,45,0.0,0.0,89,0.00,,---,0.00,VWS V14.00,2013-02-03 04:10:00,
2013-02-02 22:15:00,1.1,-1.4,30.00,NE,45,0.0,0.0,89,0.00,,---,0.00,VWS V14.00,2013-02-03 04:15:00,
2013-02-02 22:20:00,1.3,-1.2,29.99,NE,45,0.0,0.0,89,0.00,,---,0.00,VWS V14.00,2013-02-03 04:20:00,
2013-02-02 22:25:00,1.5,-1.0,29.99,NE,45,0.0,0.0,89,0.00,,---,0.00,VWS V14.00,2013-02-03 04:25:00,
2013-02-02 22:30:00,1.4,-1.1,29.99,NE,45,0.0,0.0,89,0.00,,---,0.00,VWS V14.00,2013-02-03 04:30:00,
2013-02-02 22:35:00,1.4,-1.1,29.98,NE,45,0.0,0.0,89,0.00,,---,0.00,VWS V14.00,2013-02-03 04:35:00,
2013-02-02 22:40:00,1.7,-0.8,29.98,NE,45,0.0,0.0,89,0.00,,---,0.00,VWS V14.00,2013-02-03 04:40:00,
2013-02-02 22:45:00,2.3,0.0,29.98,NE,45,0.0,0.0,90,0.00,,---,0.00,VWS V14.00,2013-02-03 04:45:00,
2013-02-02 22:50:00,2.6,0.3,29.97,NE,45,0.0,0.0,90,0.00,,---,0.00,VWS V14.00,2013-02-03 04:50:00,
2013-02-02 22:55:00,2.7,0.2,29.97,NE,45,0.0,0.0,89,0.00,,---,0.00,VWS V14.00,2013-02-03 04:55:00,
2013-02-02 23:00:00,2.8,0.3,29.97,NE,45,0.0,0.0,89,0.00,,---,0.00,VWS V14.00,2013-02-03 05:00:00,
2013-02-02 23:01:00,2.9,0.4,29.97,NE,45,0.0,0.0,89,0.00,,---,0.00,VWS V14.00,2013-02-03 05:01:00,
2013-02-02 23:06:00,3.0,0.5,29.97,NE,45,0.0,0.0,89,0.00,,---,0.00,VWS V14.00,2013-02-03 05:06:00,
2013-02-02 23:11:00,3.2,0.7,29.97,NE,45,0.0,0.0,89,0.00,,---,0.00,VWS V14.00,2013-02-03 05:11:00,
2013-02-02 23:16:00,3.3,1.0,29.97,NE,45,0.0,0.0,90,0.00,,---,0.00,VWS V14.00,2013-02-03 05:16:00,
2013-02-02 23:21:00,3.6,1.3,29.97,NE,45,0.0,0.0,90,0.00,,---,0.00,VWS V14.00,2013-02-03 05:21:00,
2013-02-02 23:26:00,3.9,1.6,29.97,NE,45,0.0,0.0,90,0.00,,---,0.00,VWS V14.00,2013-02-03 05:26:00,
2013-02-02 23:31:00,4.0,1.7,29.96,NE,45,0.0,0.0,90,0.00,,---,0.00,VWS V14.00,2013-02-03 05:31:00,
2013-02-02 23:36:00,4.0,1.7,29.96,NE,45,0.0,0.0,90,0.00,,---,0.00,VWS V14.00,2013-02-03 05:36:00,
2013-02-02 23:41:00,4.0,1.7,29.96,NE,45,0.0,0.0,90,0.00,,---,0.00,VWS V14.00,2013-02-03 05:41:00,
2013-02-02 23:46:00,4.2,1.9,29.96,NE,45,0.0,0.0,90,0.00,,---,0.00,VWS V14.00,2013-02-03 05:46:00,
2013-02-02 23:51:00,4.7,2.4,29.96,NE,45,0.0,0.0,90,0.00,,---,0.00,VWS V14.00,2013-02-03 05:51:00,
2013-02-02 23:56:00,5.2,2.9,29.95,NE,45,0.0,0.0,90,0.00,,---,0.00,VWS V14.00,2013-02-03 05:56:00,